When you browse on this site, cookies collect data to enhance your experience and personalize the content and advertising you see.
Visit our Privacy Policy to learn more. By continuing to use the site, you agree to this use of cookies and data.
  • In Austria
  • List of Countries
  • For 7 days
  • Water Temperature
  • Satellite Maps
  • Weather Map
  • News
  • Weather Widgets
  • user-avatar
    Login

    Hourly Weather Ordino

    Today, 10 December, Monday

    Time Temperature Precipitation Wind Pressure Humidity
    00:00 -1°C° 0 mm 4 mps 639 mmHg 64%
    01:00 -1°C° 0 mm 4 mps 639 mmHg 63%
    02:00 -2°C° 0 mm 4 mps 639 mmHg 62%
    03:00 -1°C° 0 mm 3 mps 639 mmHg 60%
    04:00 -1°C° 0 mm 3 mps 639 mmHg 59%
    05:00 -1°C° 0 mm 3 mps 639 mmHg 59%
    06:00 -1°C° 0 mm 3 mps 639 mmHg 58%
    07:00 0°C° 0 mm 3 mps 639 mmHg 55%
    08:00 +1°C° 0 mm 3 mps 640 mmHg 53%
    09:00 +3°C° 0 mm 2 mps 640 mmHg 50%
    10:00 +3°C° 0 mm 3 mps 640 mmHg 49%
    11:00 +4°C° 0 mm 3 mps 641 mmHg 47%
    12:00 +5°C° 0 mm 3 mps 641 mmHg 46%
    13:00 +6°C° 0 mm 2 mps 641 mmHg 50%
    14:00 +6°C° 0 mm 2 mps 640 mmHg 53%
    15:00 +5°C° 0 mm 2 mps 640 mmHg 57%
    16:00 +3°C° 0 mm 2 mps 639 mmHg 63%
    17:00 +2°C° 0 mm 2 mps 638 mmHg 70%
    18:00 -1°C° 0 mm 2 mps 638 mmHg 76%
    19:00 -1°C° 0 mm 2 mps 638 mmHg 75%
    20:00 -1°C° 0 mm 2 mps 637 mmHg 73%
    21:00 -1°C° 0 mm 2 mps 637 mmHg 72%
    22:00 -1°C° 0 mm 2 mps 637 mmHg 70%
    23:00 -1°C° 0 mm 2 mps 637 mmHg 69%

    Tomorrow, 11 December, Tuesday

    Time Temperature Precipitation Wind Pressure Humidity
    00:00 +1°C° 0 mm 1 mps 637 mmHg 68%
    01:00 +1°C° 0 mm 1 mps 636 mmHg 67%
    02:00 +1°C° 0 mm 1 mps 636 mmHg 67%
    03:00 +1°C° 0 mm 1 mps 636 mmHg 66%
    04:00 +1°C° 0 mm 1 mps 635 mmHg 66%
    05:00 +1°C° 0 mm 1 mps 635 mmHg 65%
    06:00 +1°C° 0 mm 1 mps 635 mmHg 64%
    07:00 +2°C° 0 mm 1 mps 635 mmHg 60%
    08:00 +3°C° 0 mm 1 mps 635 mmHg 56%
    09:00 +3°C° 0 mm 0 mps 636 mmHg 52%
    10:00 +6°C° 0 mm 1 mps 636 mmHg 49%
    11:00 +7°C° 0 mm 1 mps 636 mmHg 46%
    12:00 +9°C° 0 mm 1 mps 636 mmHg 43%
    13:00 +8°C° 0 mm 1 mps 636 mmHg 48%
    14:00 +7°C° 0 mm 1 mps 635 mmHg 52%
    15:00 +7°C° 0 mm 1 mps 634 mmHg 57%
    16:00 +5°C° 0 mm 1 mps 634 mmHg 61%
    17:00 +4°C° 0 mm 1 mps 633 mmHg 66%
    18:00 +2°C° 0 mm 1 mps 633 mmHg 70%
    19:00 +2°C° 0 mm 1 mps 633 mmHg 67%
    20:00 +2°C° 0 mm 1 mps 633 mmHg 64%
    21:00 +2°C° 0 mm 2 mps 633 mmHg 61%
    22:00 +2°C° 0 mm 2 mps 633 mmHg 60%
    23:00 +2°C° 0 mm 2 mps 633 mmHg 58%

    Day after tomorrow, 12 December, Wednesday

    Time Temperature Precipitation Wind Pressure Humidity
    00:00 +2°C° 0 mm 2 mps 633 mmHg 57%
    01:00 +2°C° 0 mm 2 mps 633 mmHg 58%
    02:00 +1°C° 0 mm 2 mps 633 mmHg 58%
    03:00 +1°C° 0 mm 2 mps 633 mmHg 59%
    04:00 +1°C° 0 mm 2 mps 633 mmHg 61%
    05:00 +1°C° 0 mm 2 mps 632 mmHg 63%
    06:00 -1°C° 0 mm 2 mps 632 mmHg 65%
    07:00 +1°C° 0 mm 2 mps 633 mmHg 66%
    08:00 +2°C° 0 mm 2 mps 633 mmHg 67%
    09:00 +3°C° 0 mm 2 mps 634 mmHg 68%
    10:00 +4°C° 0 mm 2 mps 634 mmHg 69%
    11:00 +4°C° 0 mm 2 mps 634 mmHg 69%
    12:00 +4°C° 0 mm 2 mps 634 mmHg 69%
    13:00 +5°C° 0 mm 1 mps 633 mmHg 70%
    14:00 +5°C° 0 mm 1 mps 633 mmHg 71%
    15:00 +5°C° 0 mm 1 mps 632 mmHg 71%
    16:00 +4°C° 0 mm 1 mps 631 mmHg 78%
    17:00 +3°C° 0 mm 1 mps 631 mmHg 85%
    18:00 0°C° 0 mm 0 mps 631 mmHg 91%
    19:00 +1°C° 0 mm 1 mps 630 mmHg 90%
    20:00 +2°C° 0 mm 1 mps 630 mmHg 90%
    21:00 +2°C° 0 mm 1 mps 630 mmHg 89%
    22:00 +2°C° 0 mm 1 mps 630 mmHg 90%
    23:00 +1°C° 0 mm 1 mps 629 mmHg 90%

    13 December, Thursday

    Time Temperature Precipitation Wind Pressure Humidity
    00:00 +1°C° 0 mm 1 mps 629 mmHg 91%
    01:00 +1°C° 0 mm 1 mps 628 mmHg 91%
    02:00 +1°C° 0 mm 1 mps 627 mmHg 90%
    03:00 0°C° 0 mm 1 mps 627 mmHg 90%
    04:00 +1°C° 0 mm 1 mps 626 mmHg 88%
    05:00 +1°C° 0 mm 1 mps 626 mmHg 86%
    06:00 +1°C° 0 mm 1 mps 626 mmHg 84%
    07:00 +1°C° 0.1 mm 1 mps 625 mmHg 83%
    08:00 +1°C° 0.1 mm 2 mps 625 mmHg 82%
    09:00 +1°C° 0.1 mm 2 mps 625 mmHg 81%
    10:00 +2°C° 0.2 mm 2 mps 625 mmHg 81%
    11:00 +2°C° 0.2 mm 2 mps 625 mmHg 80%
    12:00 +2°C° 0.2 mm 2 mps 624 mmHg 79%
    13:00 +2°C° 0.5 mm 2 mps 624 mmHg 83%
    14:00 +2°C° 0.5 mm 2 mps 623 mmHg 86%
    15:00 +1°C° 0.5 mm 2 mps 623 mmHg 89%
    16:00 0°C° 0.6 mm 3 mps 623 mmHg 88%
    17:00 0°C° 0.6 mm 3 mps 624 mmHg 87%
    18:00 -2°C° 0.6 mm 4 mps 624 mmHg 86%
    19:00 -2°C° 0.2 mm 4 mps 625 mmHg 85%
    20:00 -3°C° 0.2 mm 4 mps 625 mmHg 83%
    21:00 -3°C° 0.2 mm 4 mps 626 mmHg 81%
    22:00 -3°C° 0 mm 4 mps 626 mmHg 81%
    23:00 -3°C° 0 mm 4 mps 626 mmHg 80%

    14 December, Friday

    Time Temperature Precipitation Wind Pressure Humidity
    00:00 -4°C° 0 mm 3 mps 627 mmHg 80%
    01:00 -4°C° 0 mm 4 mps 627 mmHg 79%
    02:00 -4°C° 0 mm 4 mps 627 mmHg 78%
    03:00 -4°C° 0 mm 4 mps 628 mmHg 78%
    04:00 -4°C° 0.1 mm 4 mps 628 mmHg 79%
    05:00 -4°C° 0.1 mm 4 mps 629 mmHg 81%
    06:00 -3°C° 0.1 mm 4 mps 630 mmHg 82%
    07:00 -3°C° 0.2 mm 4 mps 631 mmHg 81%
    08:00 -2°C° 0.2 mm 4 mps 632 mmHg 80%
    09:00 -2°C° 0.2 mm 4 mps 633 mmHg 80%
    10:00 -1°C° 0.1 mm 4 mps 633 mmHg 75%
    11:00 0°C° 0.1 mm 4 mps 634 mmHg 71%
    12:00 +1°C° 0.1 mm 4 mps 634 mmHg 67%
    13:00 0°C° 0 mm 4 mps 634 mmHg 68%
    14:00 +1°C° 0 mm 3 mps 635 mmHg 69%
    15:00 +1°C° 0 mm 3 mps 635 mmHg 70%
    16:00 0°C° 0 mm 3 mps 635 mmHg 72%
    17:00 -1°C° 0 mm 3 mps 635 mmHg 75%
    18:00 -4°C° 0 mm 3 mps 635 mmHg 77%
    19:00 -3°C° 0 mm 2 mps 635 mmHg 75%
    20:00 -3°C° 0 mm 2 mps 635 mmHg 73%
    21:00 -3°C° 0 mm 2 mps 636 mmHg 71%
    22:00 -3°C° 0 mm 2 mps 636 mmHg 68%
    23:00 -3°C° 0 mm 2 mps 636 mmHg 65%

    15 December, Saturday

    Time Temperature Precipitation Wind Pressure Humidity
    00:00 -3°C° 0 mm 2 mps 636 mmHg 62%
    01:00 -3°C° 0 mm 2 mps 636 mmHg 60%
    02:00 -3°C° 0 mm 2 mps 636 mmHg 58%
    03:00 -3°C° 0 mm 2 mps 636 mmHg 56%
    04:00 -2°C° 0 mm 2 mps 636 mmHg 55%
    05:00 -2°C° 0 mm 2 mps 636 mmHg 53%
    06:00 -2°C° 0 mm 2 mps 636 mmHg 52%
    07:00 +1°C° 0 mm 2 mps 637 mmHg 52%
    08:00 +2°C° 0 mm 2 mps 638 mmHg 53%
    09:00 +5°C° 0 mm 1 mps 639 mmHg 54%
    10:00 +6°C° 0 mm 1 mps 639 mmHg 54%
    11:00 +8°C° 0 mm 1 mps 640 mmHg 54%
    12:00 +9°C° 0 mm 0 mps 640 mmHg 54%
    13:00 +9°C° 0 mm 1 mps 640 mmHg 59%
    14:00 +9°C° 0 mm 1 mps 640 mmHg 63%
    15:00 +8°C° 0 mm 1 mps 639 mmHg 67%
    16:00 +7°C° 0 mm 1 mps 639 mmHg 70%
    17:00 +6°C° 0 mm 1 mps 639 mmHg 73%
    18:00 +5°C° 0 mm 1 mps 638 mmHg 75%
    19:00 +5°C° 0 mm 1 mps 638 mmHg 76%
    20:00 +5°C° 0 mm 1 mps 638 mmHg 76%
    21:00 +5°C° 0 mm 1 mps 639 mmHg 76%
    22:00 +4°C° 0 mm 1 mps 638 mmHg 76%
    23:00 +4°C° 0 mm 1 mps 638 mmHg 76%
    Show more